Location: Chenereilles
(45.4866°N, 4.0790°E)
Time: 11:05:08
(UTC+00:00)

USA 229 - Pass Details

Date: 12 November 2019
Orbit: 998 x 1215 km, 63.4° (Epoch: 11 December)

Event Time Altitude Azimuth Distance (km) Brightness Sun altitude
Rises 18:24:42 0° 221° (SW) 3,721 7.2 -22.4°
Reaches altitude 10° 18:27:15 10° 223° (SW) 2,788 6.5 -22.9°
Maximum altitude 18:33:49 78° 310° (NW) 1,068 3.7 -24.0°
Enters shadow 18:37:32 30° 32° (NNE) 1,824 4.6 -24.7°
